Location: Corralito
(10.2667°N, 66.9500°W)
Time: 09:19:12
(UTC+00:00)

GPS 2-12 Rocket1 - Pass Details

Date: 12 December 2023
Orbit: 577 x 637 km, 20.0° (Epoch: 23 February)

Event Time Altitude Azimuth Distance (km) Brightness Sun altitude
Exits shadow 10:11:15 - 255° (WSW) 2,623 5.8 -6.3°
Reaches altitude 10° 10:14:14 10° 230° (SW) 1,871 5.3 -5.6°
Maximum altitude 10:16:15 13° 202° (SSW) 1,682 5.3 -5.2°
Drops below altitude 10° 10:18:17 10° 174° (S) 1,868 6.0 -4.7°
Sets 10:21:45 0° 145° (SE) 2,766 7.5 -3.9°
